| time (UTC) | temp F | wind direction | speed MPH | gust MPH | rain 1hr in | rain 24hr in | rain mn in | humidity % | barometer mb |
| 20260906220733 | 79 | 42 | 2.0 | 2.0 | 0.00 | 0.00 | 0.00 | 51 | 1012.2 |
| 20260906220228 | 78 | 39 | 5.0 | 6.0 | 0.00 | 0.00 | 0.00 | 52 | 1012.5 |
| 20260906215727 | 79 | 69 | 6.0 | 8.0 | 0.00 | 0.00 | 0.00 | 52 | 1012.2 |
| 20260906215221 | 77 | 77 | 5.0 | 8.0 | 0.00 | 0.00 | 0.00 | 54 | 1012.4 |
| 20260906214719 | 76 | 51 | 4.0 | 7.0 | 0.00 | 0.00 | 0.00 | 56 | 1012.4 |
| 20260906214214 | 77 | 46 | 3.0 | 3.0 | 0.00 | 0.00 | 0.00 | 55 | 1012.6 |
| 20260906213708 | 79 | 44 | 3.0 | 3.0 | 0.00 | 0.00 | 0.00 | 52 | 1012.6 |
| 20260906213202 | 79 | 1 | 3.0 | 3.0 | 0.00 | 0.00 | 0.00 | 52 | 1012.6 |
| 20260906212700 | 79 | 74 | 5.0 | 9.0 | 0.00 | 0.00 | 0.00 | 52 | 1012.8 |
| 20260906212155 | 79 | 63 | 6.0 | 8.0 | 0.00 | 0.00 | 0.00 | 52 | 1012.6 |
| 20260906211655 | 79 | 83 | 6.0 | 8.0 | 0.00 | 0.00 | 0.00 | 52 | 1013.2 |
| 20260906211150 | 79 | 78 | 4.0 | 5.0 | 0.00 | 0.00 | 0.00 | 52 | 1012.9 |
| 20260906210645 | 78 | 60 | 5.0 | 7.0 | 0.00 | 0.00 | 0.00 | 53 | 1013.0 |
| 20260906210140 | 78 | 60 | 6.0 | 7.0 | 0.00 | 0.00 | 0.00 | 53 | 1013.0 |
| 20260906205636 | 78 | 59 | 4.0 | 5.0 | 0.00 | 0.00 | 0.00 | 54 | 1013.0 |
| 20260906205132 | 77 | 54 | 5.0 | 7.0 | 0.00 | 0.00 | 0.00 | 55 | 1013.4 |
| 20260906204631 | 78 | 64 | 6.0 | 8.0 | 0.00 | 0.00 | 0.00 | 54 | 1013.5 |
| 20260906204126 | 77 | 64 | 4.0 | 6.0 | 0.00 | 0.00 | 0.00 | 55 | 1013.3 |
| 20260906203626 | 78 | 49 | 5.0 | 9.0 | 0.00 | 0.00 | 0.00 | 54 | 1013.6 |
| 20260906203126 | 77 | 71 | 6.0 | 7.0 | 0.00 | 0.00 | 0.00 | 57 | 1013.6 |
| 20260906202623 | 76 | 65 | 3.0 | 3.0 | 0.00 | 0.00 | 0.00 | 57 | 1013.7 |
| 20260906202117 | 76 | 43 | 8.0 | 10.0 | 0.00 | 0.00 | 0.00 | 57 | 1013.8 |
| 20260906201612 | 75 | 57 | 6.0 | 8.0 | 0.00 | 0.00 | 0.00 | 57 | 1013.9 |
| 20260906201111 | 77 | 68 | 3.0 | 6.0 | 0.00 | 0.00 | 0.00 | 55 | 1013.8 |
| 20260906200608 | 76 | 72 | 5.0 | 8.0 | 0.00 | 0.00 | 0.00 | 55 | 1013.9 |
| 20260906200103 | 75 | 60 | 4.0 | 8.0 | 0.00 | 0.00 | 0.00 | 57 | 1013.9 |
| 20260906195558 | 75 | 64 | 3.0 | 5.0 | 0.00 | 0.00 | 0.00 | 57 | 1013.7 |
| 20260906195054 | 75 | 31 | 3.0 | 5.0 | 0.00 | 0.00 | 0.00 | 58 | 1014.1 |
| 20260906194550 | 75 | 357 | 2.0 | 2.0 | 0.00 | 0.00 | 0.00 | 59 | 1014.1 |
| 20260906194046 | 74 | 45 | 3.0 | 3.0 | 0.00 | 0.00 | 0.00 | 59 | 1014.3 |
| 20260906193545 | 75 | 37 | 2.0 | 3.0 | 0.00 | 0.00 | 0.00 | 60 | 1014.3 |
| 20260906193041 | 74 | 37 | 5.0 | 6.0 | 0.00 | 0.00 | 0.00 | 60 | 1014.4 |
| 20260906192536 | 73 | 124 | 5.0 | 6.0 | 0.00 | 0.00 | 0.00 | 62 | 1014.3 |
| 20260906192035 | 73 | 28 | 2.0 | 3.0 | 0.00 | 0.00 | 0.00 | 63 | 1014.5 |
| 20260906191531 | 72 | 18 | 2.0 | 2.0 | 0.00 | 0.00 | 0.00 | 63 | 1014.3 |
| 20260906191029 | 73 | 86 | 3.0 | 3.0 | 0.00 | 0.00 | 0.00 | 63 | 1014.8 |
| 20260906190529 | 73 | 37 | 2.0 | 3.0 | 0.00 | 0.00 | 0.00 | 62 | 1014.8 |
| 20260906190024 | 72 | 38 | 3.0 | 6.0 | 0.00 | 0.00 | 0.00 | 63 | 1014.8 |
| 20260906185523 | 72 | 71 | 5.0 | 5.0 | 0.00 | 0.00 | 0.00 | 65 | 1015.0 |
| 20260906185022 | 71 | 94 | 7.0 | 8.0 | 0.00 | 0.00 | 0.00 | 66 | 1014.9 |
| 20260906184517 | 71 | 97 | 7.0 | 9.0 | 0.00 | 0.00 | 0.00 | 66 | 1015.3 |
| 20260906184013 | 72 | 78 | 5.0 | 6.0 | 0.00 | 0.00 | 0.00 | 65 | 1015.3 |
| 20260906183509 | 71 | 62 | 6.0 | 7.0 | 0.00 | 0.00 | 0.00 | 66 | 1015.4 |
| 20260906183004 | 71 | 46 | 4.0 | 5.0 | 0.00 | 0.00 | 0.00 | 66 | 1015.6 |
| 20260906182459 | 71 | 77 | 6.0 | 9.0 | 0.00 | 0.00 | 0.00 | 64 | 1015.5 |
| 20260906181955 | 71 | 74 | 2.0 | 3.0 | 0.00 | 0.00 | 0.00 | 66 | 1015.5 |
| 20260906181451 | 71 | 51 | 2.0 | 3.0 | 0.00 | 0.00 | 0.00 | 67 | 1015.6 |
| 20260906180946 | 71 | 69 | 3.0 | 5.0 | 0.00 | 0.00 | 0.00 | 66 | 1015.9 |
| 20260906180441 | 71 | 34 | 3.0 | 5.0 | 0.00 | 0.00 | 0.00 | 66 | 1015.9 |
| 20260906175939 | 70 | 39 | 3.0 | 5.0 | 0.00 | 0.00 | 0.00 | 67 | 1015.7 |
| 20260906175434 | 70 | 19 | 3.0 | 5.0 | 0.00 | 0.00 | 0.00 | 67 | 1016.0 |
| 20260906174932 | 69 | 63 | 3.0 | 6.0 | 0.00 | 0.00 | 0.00 | 68 | 1016.1 |
| 20260906174432 | 69 | 58 | 3.0 | 6.0 | 0.00 | 0.00 | 0.00 | 68 | 1016.4 |
| 20260906173927 | 69 | 34 | 2.0 | 2.0 | 0.00 | 0.00 | 0.00 | 67 | 1016.3 |
| 20260906173422 | 69 | 38 | 4.0 | 6.0 | 0.00 | 0.00 | 0.00 | 68 | 1016.5 |
| 20260906172921 | 68 | 61 | 3.0 | 6.0 | 0.00 | 0.00 | 0.00 | 68 | 1016.6 |
| 20260906172418 | 68 | 26 | 2.0 | 2.0 | 0.00 | 0.00 | 0.00 | 69 | 1016.5 |
| 20260906171913 | 67 | 75 | 3.0 | 5.0 | 0.00 | 0.00 | 0.00 | 69 | 1016.8 |
| 20260906171407 | 67 | 19 | 5.0 | 6.0 | 0.00 | 0.00 | 0.00 | 70 | 1016.7 |
| 20260906170903 | 68 | 25 | 6.0 | 8.0 | 0.00 | 0.00 | 0.00 | 70 | 1016.7 |
| 20260906170354 | 67 | 23 | 4.0 | 6.0 | 0.00 | 0.00 | 0.00 | 72 | 1016.6 |
| 20260906165850 | 67 | 54 | 2.0 | 3.0 | 0.00 | 0.00 | 0.00 | 73 | 1016.8 |
| 20260906165349 | 67 | 55 | 3.0 | 3.0 | 0.00 | 0.00 | 0.00 | 73 | 1017.0 |
| 20260906164844 | 67 | 44 | 5.0 | 6.0 | 0.00 | 0.00 | 0.00 | 74 | 1016.7 |
| 20260906164343 | 66 | 6 | 4.0 | 5.0 | 0.00 | 0.00 | 0.00 | 75 | 1017.0 |
| 20260906163839 | 66 | 39 | 3.0 | 5.0 | 0.00 | 0.00 | 0.00 | 76 | 1016.8 |
| 20260906163336 | 66 | 49 | 5.0 | 6.0 | 0.00 | 0.00 | 0.00 | 75 | 1016.9 |
| 20260906162833 | 66 | 29 | 2.0 | 5.0 | 0.00 | 0.00 | 0.00 | 76 | 1016.7 |
| 20260906162332 | 66 | 33 | 1.0 | 2.0 | 0.00 | 0.00 | 0.00 | 76 | 1016.9 |
| 20260906161827 | 66 | 58 | 2.0 | 3.0 | 0.00 | 0.00 | 0.00 | 76 | 1016.9 |
| 20260906161326 | 66 | 49 | 3.0 | 3.0 | 0.00 | 0.00 | 0.00 | 76 | 1017.2 |
| 20260906160825 | 66 | 49 | 3.0 | 3.0 | 0.00 | 0.00 | 0.00 | 76 | 1016.9 |
| 20260906160319 | 66 | 35 | 2.0 | 2.0 | 0.00 | 0.00 | 0.00 | 76 | 1016.9 |
| 20260906155818 | 66 | 53 | 3.0 | 5.0 | 0.00 | 0.00 | 0.00 | 76 | 1016.8 |
| 20260906155311 | 66 | 33 | 4.0 | 5.0 | 0.00 | 0.00 | 0.00 | 76 | 1016.8 |
| 20260906154807 | 66 | 48 | 4.0 | 6.0 | 0.00 | 0.00 | 0.00 | 75 | 1016.8 |
| 20260906154256 | 66 | 42 | 3.0 | 6.0 | 0.00 | 0.00 | 0.00 | 75 | 1016.6 |
| 20260906153755 | 66 | 9 | 4.0 | 6.0 | 0.00 | 0.00 | 0.00 | 75 | 1016.4 |
| 20260906153249 | 66 | 49 | 4.0 | 6.0 | 0.00 | 0.00 | 0.00 | 75 | 1016.7 |
| 20260906152744 | 66 | 15 | 5.0 | 6.0 | 0.00 | 0.00 | 0.00 | 76 | 1016.6 |
| 20260906152239 | 65 | 42 | 3.0 | 5.0 | 0.00 | 0.00 | 0.00 | 77 | 1016.4 |
| 20260906151739 | 65 | 33 | 3.0 | 3.0 | 0.00 | 0.00 | 0.00 | 77 | 1016.4 |
| 20260906151234 | 65 | 26 | 2.0 | 2.0 | 0.00 | 0.00 | 0.00 | 78 | 1016.6 |
| 20260906150730 | 65 | 18 | 3.0 | 3.0 | 0.00 | 0.00 | 0.00 | 78 | 1016.5 |
| 20260906150225 | 65 | 19 | 1.0 | 1.0 | 0.00 | 0.00 | 0.00 | 77 | 1016.8 |
| 20260906145724 | 65 | 6 | 2.0 | 2.0 | 0.00 | 0.00 | 0.00 | 77 | 1016.7 |
| 20260906145223 | 65 | 348 | 0.0 | 1.0 | 0.00 | 0.00 | 0.00 | 75 | 1016.6 |
| 20260906144719 | 65 | 335 | 2.0 | 2.0 | 0.00 | 0.00 | 0.00 | 74 | 1016.9 |
| 20260906144213 | 65 | 351 | 0.0 | 1.0 | 0.00 | 0.00 | 0.00 | 74 | 1016.6 |
| 20260906143713 | 64 | 351 | 1.0 | 1.0 | 0.00 | 0.00 | 0.00 | 75 | 1016.5 |
| 20260906143210 | 64 | 342 | 1.0 | 1.0 | 0.00 | 0.00 | 0.00 | 75 | 1016.5 |
| 20260906142709 | 64 | 22 | 0.0 | 1.0 | 0.00 | 0.00 | 0.00 | 78 | 1016.5 |
| 20260906142205 | 64 | 17 | 0.0 | 1.0 | 0.00 | 0.00 | 0.00 | 79 | 1016.5 |
| 20260906141703 | 63 | 37 | 1.0 | 2.0 | 0.00 | 0.00 | 0.00 | 79 | 1016.5 |
| 20260906141158 | 63 | 8 | 0.0 | 1.0 | 0.00 | 0.00 | 0.00 | 79 | 1016.5 |
| 20260906140658 | 63 | 18 | 1.0 | 1.0 | 0.00 | 0.00 | 0.00 | 80 | 1016.5 |
| 20260906140153 | 63 | 9 | 0.0 | 0.0 | 0.00 | 0.00 | 0.00 | 80 | 1016.3 |
| 20260906135649 | 62 | 17 | 0.0 | 0.0 | 0.00 | 0.00 | 0.00 | 81 | 1016.1 |
| 20260906135146 | 62 | 17 | 0.0 | 1.0 | 0.00 | 0.00 | 0.00 | 81 | 1016.1 |
| 20260906134641 | 62 | 91 | 3.0 | 3.0 | 0.00 | 0.00 | 0.00 | 82 | 1016.1 |
| 20260906134136 | 62 | 31 | 1.0 | 2.0 | 0.00 | 0.00 | 0.00 | 82 | 1016.4 |
| 20260906133632 | 61 | 28 | 1.0 | 1.0 | 0.00 | 0.00 | 0.00 | 82 | 1015.8 |
| 20260906133127 | 61 | 32 | 2.0 | 2.0 | 0.00 | 0.00 | 0.00 | 82 | 1015.7 |
| 20260906132627 | 61 | 32 | 3.0 | 5.0 | 0.00 | 0.00 | 0.00 | 82 | 1015.9 |
| 20260906132123 | 61 | 19 | 0.0 | 0.0 | 0.00 | 0.00 | 0.00 | 81 | 1016.4 |
| 20260906131618 | 61 | 288 | 3.0 | 3.0 | 0.00 | 0.00 | 0.00 | 83 | 1016.6 |
| 20260906131113 | 61 | 23 | 1.0 | 1.0 | 0.00 | 0.00 | 0.00 | 83 | 1016.0 |
| 20260906130609 | 60 | 53 | 3.0 | 3.0 | 0.00 | 0.00 | 0.00 | 83 | 1016.1 |
| 20260906130103 | 60 | 347 | 1.0 | 1.0 | 0.00 | 0.00 | 0.00 | 83 | 1016.4 |
| 20260906125600 | 60 | 19 | 0.0 | 0.0 | 0.00 | 0.00 | 0.00 | 83 | 1016.1 |
| 20260906125054 | 60 | 19 | 0.0 | 0.0 | 0.00 | 0.00 | 0.00 | 83 | 1016.3 |
| 20260906124550 | 60 | 47 | 0.0 | 0.0 | 0.00 | 0.00 | 0.00 | 84 | 1016.3 |
| 20260906124045 | 60 | 39 | 1.0 | 2.0 | 0.00 | 0.00 | 0.00 | 83 | 1016.1 |
| 20260906123544 | 60 | 36 | 0.0 | 0.0 | 0.00 | 0.00 | 0.00 | 83 | 1016.1 |
| 20260906123039 | 60 | 43 | 1.0 | 1.0 | 0.00 | 0.00 | 0.00 | 83 | 1016.1 |
| 20260906122538 | 60 | 28 | 1.0 | 1.0 | 0.00 | 0.00 | 0.00 | 82 | 1016.1 |
| 20260906122035 | 60 | 24 | 0.0 | 1.0 | 0.00 | 0.00 | 0.00 | 82 | 1016.4 |
| 20260906121531 | 60 | 24 | 1.0 | 1.0 | 0.00 | 0.00 | 0.00 | 81 | 1016.3 |
| 20260906121027 | 61 | 32 | 1.0 | 2.0 | 0.00 | 0.00 | 0.00 | 81 | 1016.4 |
| 20260906120522 | 61 | 35 | 1.0 | 1.0 | 0.00 | 0.00 | 0.00 | 80 | 1016.5 |
| 20260906120019 | 61 | 46 | 2.0 | 2.0 | 0.00 | 0.00 | 0.00 | 80 | 1016.3 |
| 20260906115514 | 61 | 52 | 3.0 | 3.0 | 0.00 | 0.00 | 0.00 | 80 | 1016.3 |
| 20260906115014 | 61 | 41 | 1.0 | 2.0 | 0.00 | 0.00 | 0.00 | 79 | 1016.1 |
| 20260906114509 | 62 | 52 | 0.0 | 1.0 | 0.00 | 0.00 | 0.00 | 79 | 1016.3 |
| 20260906114004 | 62 | 41 | 2.0 | 3.0 | 0.00 | 0.00 | 0.00 | 78 | 1016.5 |
| 20260906113503 | 62 | 48 | 0.0 | 1.0 | 0.00 | 0.00 | 0.00 | 78 | 1016.4 |
| 20260906112958 | 62 | 46 | 3.0 | 3.0 | 0.00 | 0.00 | 0.00 | 79 | 1016.8 |
| 20260906112453 | 61 | 55 | 2.0 | 3.0 | 0.00 | 0.00 | 0.00 | 79 | 1016.7 |
| 20260906111950 | 62 | 24 | 1.0 | 1.0 | 0.00 | 0.00 | 0.00 | 78 | 1016.6 |
| 20260906111448 | 62 | 16 | 0.0 | 1.0 | 0.00 | 0.00 | 0.00 | 78 | 1016.6 |
| 20260906110944 | 62 | 24 | 2.0 | 3.0 | 0.00 | 0.00 | 0.00 | 78 | 1016.8 |
| 20260906110439 | 62 | 14 | 2.0 | 2.0 | 0.00 | 0.00 | 0.00 | 77 | 1016.6 |
| 20260906105938 | 62 | 8 | 1.0 | 1.0 | 0.00 | 0.00 | 0.00 | 77 | 1016.6 |
| 20260906105434 | 62 | 2 | 0.0 | 1.0 | 0.00 | 0.00 | 0.00 | 76 | 1016.7 |
| 20260906104929 | 62 | 34 | 0.0 | 0.0 | 0.00 | 0.00 | 0.00 | 76 | 1016.5 |
| 20260906104428 | 62 | 349 | 1.0 | 1.0 | 0.00 | 0.00 | 0.00 | 75 | 1016.8 |
| 20260906103922 | 62 | 19 | 0.0 | 1.0 | 0.00 | 0.00 | 0.00 | 75 | 1016.4 |
| 20260906103420 | 62 | 14 | 0.0 | 1.0 | 0.00 | 0.00 | 0.00 | 75 | 1016.7 |
| 20260906102916 | 62 | 14 | 0.0 | 1.0 | 0.00 | 0.00 | 0.00 | 74 | 1016.6 |
| 20260906102415 | 62 | 15 | 0.0 | 1.0 | 0.00 | 0.00 | 0.00 | 74 | 1016.5 |
| 20260906101910 | 62 | 10 | 2.0 | 3.0 | 0.00 | 0.00 | 0.00 | 74 | 1016.1 |
| 20260906101405 | 62 | 354 | 2.0 | 2.0 | 0.00 | 0.00 | 0.00 | 73 | 1016.5 |
| 20260906100901 | 62 | 4 | 4.0 | 5.0 | 0.00 | 0.00 | 0.00 | 73 | 1016.0 |
| 20260906100400 | 62 | 17 | 1.0 | 2.0 | 0.00 | 0.00 | 0.00 | 73 | 1016.6 |
| 20260906095855 | 63 | 21 | 2.0 | 2.0 | 0.00 | 0.00 | 0.00 | 72 | 1016.1 |
| 20260906095350 | 63 | 14 | 2.0 | 2.0 | 0.00 | 0.00 | 0.00 | 73 | 1016.3 |
| 20260906094850 | 63 | 20 | 3.0 | 5.0 | 0.00 | 0.00 | 0.00 | 73 | 1016.3 |
| 20260906094345 | 63 | 18 | 1.0 | 2.0 | 0.00 | 0.00 | 0.00 | 73 | 1016.5 |
| 20260906093841 | 63 | 11 | 4.0 | 5.0 | 0.00 | 0.00 | 0.00 | 72 | 1016.3 |
| 20260906093337 | 63 | 20 | 3.0 | 5.0 | 0.00 | 0.00 | 0.00 | 72 | 1016.4 |
| 20260906092831 | 63 | 19 | 3.0 | 3.0 | 0.00 | 0.00 | 0.00 | 72 | 1016.0 |
| 20260906092326 | 64 | 42 | 4.0 | 6.0 | 0.00 | 0.00 | 0.00 | 71 | 1016.3 |
| 20260906091821 | 64 | 33 | 5.0 | 6.0 | 0.00 | 0.00 | 0.00 | 71 | 1016.4 |
| 20260906091318 | 64 | 48 | 5.0 | 7.0 | 0.00 | 0.00 | 0.00 | 71 | 1016.1 |
| 20260906090814 | 64 | 18 | 6.0 | 10.0 | 0.00 | 0.00 | 0.00 | 71 | 1016.4 |
| 20260906090313 | 64 | 10 | 9.0 | 15.0 | 0.00 | 0.00 | 0.00 | 71 | 1016.1 |
| 20260906085812 | 63 | 10 | 5.0 | 7.0 | 0.00 | 0.00 | 0.00 | 71 | 1016.5 |
| 20260906085307 | 63 | 33 | 3.0 | 5.0 | 0.00 | 0.00 | 0.00 | 71 | 1016.6 |
| 20260906084801 | 63 | 40 | 5.0 | 6.0 | 0.00 | 0.00 | 0.00 | 71 | 1016.6 |
| 20260906084301 | 63 | 27 | 5.0 | 7.0 | 0.00 | 0.00 | 0.00 | 71 | 1016.7 |
| 20260906083755 | 63 | 16 | 4.0 | 6.0 | 0.00 | 0.00 | 0.00 | 71 | 1016.8 |
| 20260906083251 | 63 | 33 | 3.0 | 3.0 | 0.00 | 0.00 | 0.00 | 71 | 1016.8 |
| 20260906082745 | 63 | 27 | 4.0 | 5.0 | 0.00 | 0.00 | 0.00 | 70 | 1017.0 |
| 20260906082241 | 63 | 16 | 2.0 | 3.0 | 0.00 | 0.00 | 0.00 | 70 | 1016.8 |
| 20260906081737 | 63 | 17 | 5.0 | 6.0 | 0.00 | 0.00 | 0.00 | 69 | 1016.7 |
| 20260906081231 | 63 | 19 | 4.0 | 5.0 | 0.00 | 0.00 | 0.00 | 69 | 1016.7 |
| 20260906080728 | 64 | 22 | 3.0 | 6.0 | 0.00 | 0.00 | 0.00 | 67 | 1016.7 |
| 20260906080224 | 64 | 15 | 5.0 | 6.0 | 0.00 | 0.00 | 0.00 | 67 | 1016.8 |
| 20260906075724 | 64 | 9 | 3.0 | 6.0 | 0.00 | 0.00 | 0.00 | 67 | 1016.9 |
| 20260906075218 | 64 | 14 | 3.0 | 5.0 | 0.00 | 0.00 | 0.00 | 66 | 1016.7 |
| 20260906074713 | 64 | 52 | 3.0 | 3.0 | 0.00 | 0.00 | 0.00 | 66 | 1016.9 |
| 20260906074213 | 64 | 39 | 5.0 | 8.0 | 0.00 | 0.00 | 0.00 | 65 | 1016.7 |
| 20260906073708 | 64 | 36 | 3.0 | 5.0 | 0.00 | 0.00 | 0.00 | 65 | 1016.7 |
| 20260906073203 | 64 | 36 | 4.0 | 5.0 | 0.00 | 0.00 | 0.00 | 64 | 1016.7 |
| 20260906072658 | 64 | 28 | 2.0 | 2.0 | 0.00 | 0.00 | 0.00 | 64 | 1016.5 |
| 20260906072154 | 64 | 7 | 3.0 | 3.0 | 0.00 | 0.00 | 0.00 | 63 | 1016.9 |
| 20260906071650 | 64 | 12 | 1.0 | 2.0 | 0.00 | 0.00 | 0.00 | 62 | 1017.2 |
| 20260906071149 | 64 | 12 | 1.0 | 1.0 | 0.00 | 0.00 | 0.00 | 62 | 1017.2 |
| 20260906070646 | 64 | 16 | 4.0 | 5.0 | 0.00 | 0.00 | 0.00 | 62 | 1017.0 |
| 20260906070142 | 64 | 25 | 5.0 | 7.0 | 0.00 | 0.00 | 0.00 | 61 | 1016.8 |
| 20260906065641 | 65 | 28 | 4.0 | 6.0 | 0.00 | 0.00 | 0.00 | 61 | 1017.1 |
| 20260906065136 | 65 | 37 | 6.0 | 9.0 | 0.00 | 0.00 | 0.00 | 60 | 1016.9 |
| 20260906064632 | 65 | 41 | 5.0 | 6.0 | 0.00 | 0.00 | 0.00 | 60 | 1016.7 |
| 20260906064127 | 65 | 28 | 6.0 | 8.0 | 0.00 | 0.00 | 0.00 | 59 | 1016.6 |
| 20260906063622 | 65 | 36 | 7.0 | 9.0 | 0.00 | 0.00 | 0.00 | 58 | 1016.6 |
| 20260906063118 | 65 | 35 | 7.0 | 9.0 | 0.00 | 0.00 | 0.00 | 58 | 1016.9 |
| 20260906062614 | 65 | 18 | 5.0 | 7.0 | 0.00 | 0.00 | 0.00 | 57 | 1016.7 |
| 20260906062112 | 66 | 34 | 5.0 | 8.0 | 0.00 | 0.00 | 0.00 | 57 | 1016.9 |
| 20260906061609 | 66 | 22 | 7.0 | 9.0 | 0.00 | 0.00 | 0.00 | 56 | 1016.8 |
| 20260906061108 | 66 | 41 | 10.0 | 13.0 | 0.00 | 0.00 | 0.00 | 56 | 1016.7 |
| 20260906060605 | 66 | 21 | 6.0 | 8.0 | 0.00 | 0.00 | 0.00 | 56 | 1016.6 |
| 20260906055557 | 66 | 30 | 6.0 | 9.0 | 0.00 | 0.00 | 0.00 | 55 | 1016.9 |
| 20260906055053 | 66 | 20 | 7.0 | 9.0 | 0.00 | 0.00 | 0.00 | 55 | 1016.9 |
| 20260906054553 | 66 | 46 | 7.0 | 8.0 | 0.00 | 0.00 | 0.00 | 54 | 1016.9 |
| 20260906054048 | 66 | 32 | 6.0 | 7.0 | 0.00 | 0.00 | 0.00 | 54 | 1016.8 |
| 20260906053544 | 66 | 18 | 6.0 | 8.0 | 0.00 | 0.00 | 0.00 | 53 | 1016.8 |
| 20260906053039 | 66 | 48 | 8.0 | 9.0 | 0.00 | 0.00 | 0.00 | 52 | 1016.8 |
| 20260906052535 | 67 | 26 | 6.0 | 8.0 | 0.00 | 0.00 | 0.00 | 52 | 1016.9 |
| 20260906052032 | 67 | 22 | 7.0 | 8.0 | 0.00 | 0.00 | 0.00 | 51 | 1017.2 |
| 20260906051527 | 67 | 26 | 7.0 | 8.0 | 0.00 | 0.00 | 0.00 | 50 | 1017.0 |
| 20260906051023 | 67 | 19 | 7.0 | 10.0 | 0.00 | 0.00 | 0.00 | 49 | 1017.1 |
| 20260906050518 | 67 | 32 | 6.0 | 7.0 | 0.00 | 0.00 | 0.00 | 49 | 1016.9 |
| 20260906050012 | 67 | 23 | 5.0 | 8.0 | 0.00 | 0.00 | 0.00 | 48 | 1016.7 |
| 20260906045511 | 68 | 31 | 7.0 | 9.0 | 0.00 | 0.00 | 0.00 | 47 | 1017.1 |
| 20260906045007 | 68 | 30 | 4.0 | 5.0 | 0.00 | 0.00 | 0.00 | 47 | 1017.2 |
| 20260906044502 | 68 | 45 | 5.0 | 6.0 | 0.00 | 0.00 | 0.00 | 47 | 1017.0 |
| 20260906043957 | 67 | 16 | 3.0 | 5.0 | 0.00 | 0.00 | 0.00 | 46 | 1017.2 |
| 20260906043453 | 67 | 30 | 3.0 | 3.0 | 0.00 | 0.00 | 0.00 | 46 | 1016.9 |
| 20260906042949 | 68 | 10 | 4.0 | 5.0 | 0.00 | 0.00 | 0.00 | 46 | 1017.0 |
| 20260906042448 | 68 | 26 | 2.0 | 3.0 | 0.00 | 0.00 | 0.00 | 45 | 1017.0 |
| 20260906041948 | 68 | 19 | 2.0 | 3.0 | 0.00 | 0.00 | 0.00 | 45 | 1017.0 |
| 20260906041444 | 68 | 17 | 1.0 | 2.0 | 0.00 | 0.00 | 0.00 | 45 | 1017.0 |
| 20260906040943 | 68 | 13 | 1.0 | 2.0 | 0.00 | 0.00 | 0.00 | 45 | 1017.0 |
| 20260906040439 | 68 | 19 | 2.0 | 3.0 | 0.00 | 0.00 | 0.00 | 45 | 1016.9 |
| 20260906035934 | 68 | 17 | 3.0 | 3.0 | 0.00 | 0.00 | 0.00 | 45 | 1016.8 |
| 20260906035429 | 68 | 12 | 3.0 | 5.0 | 0.00 | 0.00 | 0.00 | 45 | 1016.9 |
| 20260906034924 | 68 | 19 | 6.0 | 8.0 | 0.00 | 0.00 | 0.00 | 45 | 1016.6 |
| 20260906034419 | 68 | 16 | 2.0 | 3.0 | 0.00 | 0.00 | 0.00 | 45 | 1016.6 |
| 20260906033915 | 68 | 34 | 3.0 | 3.0 | 0.00 | 0.00 | 0.00 | 45 | 1016.7 |
| 20260906033415 | 68 | 18 | 2.0 | 3.0 | 0.00 | 0.00 | 0.00 | 44 | 1016.9 |
| 20260906032910 | 68 | 22 | 3.0 | 3.0 | 0.00 | 0.00 | 0.00 | 44 | 1016.9 |
| 20260906032407 | 68 | 21 | 1.0 | 2.0 | 0.00 | 0.00 | 0.00 | 44 | 1016.8 |
| 20260906031901 | 68 | 26 | 3.0 | 5.0 | 0.00 | 0.00 | 0.00 | 44 | 1016.8 |
| 20260906031356 | 68 | 29 | 2.0 | 2.0 | 0.00 | 0.00 | 0.00 | 44 | 1017.0 |
| 20260906030851 | 68 | 20 | 2.0 | 2.0 | 0.00 | 0.00 | 0.00 | 43 | 1016.8 |
| 20260906030346 | 68 | 22 | 2.0 | 2.0 | 0.00 | 0.00 | 0.00 | 43 | 1016.6 |
| 20260906025841 | 69 | 21 | 3.0 | 3.0 | 0.00 | 0.00 | 0.00 | 42 | 1016.7 |
| 20260906025335 | 68 | 33 | 3.0 | 3.0 | 0.00 | 0.00 | 0.00 | 42 | 1016.7 |
| 20260906024834 | 69 | 23 | 3.0 | 3.0 | 0.00 | 0.00 | 0.00 | 42 | 1016.6 |
| 20260906024333 | 69 | 31 | 2.0 | 3.0 | 0.00 | 0.00 | 0.00 | 41 | 1016.7 |
| 20260906023829 | 69 | 39 | 4.0 | 5.0 | 0.00 | 0.00 | 0.00 | 40 | 1016.7 |
| 20260906023324 | 70 | 30 | 3.0 | 5.0 | 0.00 | 0.00 | 0.00 | 40 | 1016.6 |
| 20260906022820 | 70 | 33 | 4.0 | 5.0 | 0.00 | 0.00 | 0.00 | 39 | 1016.6 |
| 20260906022315 | 70 | 47 | 4.0 | 5.0 | 0.00 | 0.00 | 0.00 | 39 | 1016.6 |
| 20260906021811 | 70 | 32 | 3.0 | 5.0 | 0.00 | 0.00 | 0.00 | 39 | 1016.6 |
| 20260906021309 | 70 | 52 | 3.0 | 5.0 | 0.00 | 0.00 | 0.00 | 39 | 1016.6 |
| 20260906020804 | 71 | 33 | 3.0 | 3.0 | 0.00 | 0.00 | 0.00 | 38 | 1016.6 |
| 20260906020259 | 71 | 43 | 2.0 | 2.0 | 0.00 | 0.00 | 0.00 | 37 | 1016.6 |
| 20260906015759 | 72 | 55 | 3.0 | 3.0 | 0.00 | 0.00 | 0.00 | 36 | 1016.3 |
| 20260906015257 | 73 | 57 | 3.0 | 3.0 | 0.00 | 0.00 | 0.00 | 36 | 1016.4 |
| 20260906014752 | 73 | 53 | 3.0 | 6.0 | 0.00 | 0.00 | 0.00 | 35 | 1016.5 |
| 20260906014247 | 74 | 81 | 4.0 | 5.0 | 0.00 | 0.00 | 0.00 | 34 | 1016.3 |
| 20260906013743 | 74 | 57 | 3.0 | 3.0 | 0.00 | 0.00 | 0.00 | 34 | 1016.5 |
| 20260906013244 | 74 | 53 | 1.0 | 2.0 | 0.00 | 0.00 | 0.00 | 33 | 1016.4 |
| 20260906012739 | 75 | 54 | 4.0 | 6.0 | 0.00 | 0.00 | 0.00 | 32 | 1016.3 |
| 20260906012233 | 75 | 69 | 5.0 | 7.0 | 0.00 | 0.00 | 0.00 | 32 | 1016.1 |
| 20260906011729 | 76 | 26 | 4.0 | 6.0 | 0.00 | 0.00 | 0.00 | 31 | 1016.1 |
| 20260906011223 | 76 | 59 | 7.0 | 9.0 | 0.00 | 0.00 | 0.00 | 31 | 1016.3 |
| 20260906010719 | 77 | 49 | 9.0 | 13.0 | 0.00 | 0.00 | 0.00 | 30 | 1016.3 |
| 20260906010215 | 77 | 74 | 6.0 | 9.0 | 0.00 | 0.00 | 0.00 | 30 | 1016.3 |
| 20260906005715 | 77 | 81 | 4.0 | 7.0 | 0.00 | 0.00 | 0.00 | 30 | 1016.1 |
| 20260906005209 | 78 | 81 | 8.0 | 11.0 | 0.00 | 0.00 | 0.00 | 29 | 1016.3 |
| 20260906004708 | 78 | 59 | 7.0 | 10.0 | 0.00 | 0.00 | 0.00 | 29 | 1015.9 |
| 20260906004203 | 78 | 51 | 7.0 | 9.0 | 0.00 | 0.00 | 0.00 | 29 | 1015.9 |
| 20260906003658 | 79 | 55 | 5.0 | 8.0 | 0.00 | 0.00 | 0.00 | 28 | 1015.9 |
| 20260906003154 | 79 | 75 | 5.0 | 9.0 | 0.00 | 0.00 | 0.00 | 28 | 1015.9 |
| 20260906002654 | 79 | 31 | 3.0 | 5.0 | 0.00 | 0.00 | 0.00 | 28 | 1016.0 |
| 20260906002148 | 80 | 38 | 5.0 | 7.0 | 0.00 | 0.00 | 0.00 | 28 | 1016.0 |
| 20260906001643 | 80 | 63 | 3.0 | 5.0 | 0.00 | 0.00 | 0.00 | 28 | 1015.8 |
| 20260906001138 | 80 | 73 | 6.0 | 7.0 | 0.00 | 0.00 | 0.00 | 28 | 1016.0 |
| 20260906000634 | 80 | 87 | 8.0 | 9.0 | 0.00 | 0.00 | 0.00 | 27 | 1016.1 |
| 20260906000129 | 80 | 48 | 5.0 | 6.0 | 0.00 | 0.00 | 0.00 | 27 | 1016.0 |
| 20260905235627 | 81 | 51 | 5.0 | 7.0 | 0.00 | 0.00 | 0.00 | 26 | 1015.9 |
| 20260905235123 | 80 | 39 | 4.0 | 7.0 | 0.00 | 0.00 | 0.00 | 26 | 1016.0 |
| 20260905234618 | 80 | 73 | 7.0 | 10.0 | 0.00 | 0.00 | 0.00 | 26 | 1016.0 |
| 20260905234113 | 80 | 38 | 5.0 | 6.0 | 0.00 | 0.00 | 0.00 | 26 | 1016.0 |
| 20260905233608 | 81 | 59 | 5.0 | 5.0 | 0.00 | 0.00 | 0.00 | 26 | 1015.9 |
| 20260905233103 | 81 | 52 | 7.0 | 9.0 | 0.00 | 0.00 | 0.00 | 26 | 1015.8 |
| 20260905232558 | 80 | 42 | 4.0 | 5.0 | 0.00 | 0.00 | 0.00 | 26 | 1015.6 |
| 20260905232054 | 81 | 57 | 5.0 | 6.0 | 0.00 | 0.00 | 0.00 | 25 | 1015.5 |
| 20260905231549 | 81 | 39 | 8.0 | 10.0 | 0.00 | 0.00 | 0.00 | 26 | 1015.8 |
| 20260905231045 | 81 | 72 | 5.0 | 7.0 | 0.00 | 0.00 | 0.00 | 25 | 1015.8 |
| 20260905230544 | 81 | 60 | 5.0 | 9.0 | 0.00 | 0.00 | 0.00 | 26 | 1015.7 |
| 20260905230043 | 81 | 53 | 5.0 | 6.0 | 0.00 | 0.00 | 0.00 | 26 | 1015.5 |
| 20260905225538 | 81 | 64 | 3.0 | 5.0 | 0.00 | 0.00 | 0.00 | 26 | 1015.6 |
| 20260905225032 | 81 | 75 | 3.0 | 3.0 | 0.00 | 0.00 | 0.00 | 26 | 1015.6 |
| 20260905224527 | 81 | 47 | 7.0 | 9.0 | 0.00 | 0.00 | 0.00 | 25 | 1015.6 |
| 20260905224026 | 81 | 39 | 8.0 | 10.0 | 0.00 | 0.00 | 0.00 | 25 | 1015.9 |
| 20260905223525 | 81 | 21 | 5.0 | 7.0 | 0.00 | 0.00 | 0.00 | 25 | 1015.7 |
| 20260905223020 | 81 | 69 | 6.0 | 7.0 | 0.00 | 0.00 | 0.00 | 25 | 1015.6 |
| 20260905222514 | 81 | 51 | 3.0 | 7.0 | 0.00 | 0.00 | 0.00 | 25 | 1015.7 |
| 20260905222009 | 82 | 79 | 6.0 | 8.0 | 0.00 | 0.00 | 0.00 | 25 | 1015.6 |
| 20260905221506 | 81 | 44 | 2.0 | 3.0 | 0.00 | 0.00 | 0.00 | 25 | 1015.7 |